Regional Weather Roundup
Issued by NWS

Current Version | Previous Version | Text Only | Print | Product List | Glossary On
Versions: 1 2 3 4 5 6 7 8 9 10 11 12 13 14 15 16 17 18 19 20 21 22 23 24 25 26 27 28 29 30 31 32 33 34 35 36 37 38 39 40 41 42 43 44 45 46 47 48 49 50
567
ASUS44 KMEG 250110
RWRTN
TENNESSEE HOURLY STATE WEATHER ROUNDUP
NATIONAL WEATHER SERVICE MEMPHIS TN
800 PM CDT WED AUG 24 2016

TNZ002-004-019-021-049-052-054-088>092-250200-
WEST TENNESSEE

CITY           SKY/WX    TMP DP  RH WIND       PRES   REMARKS
MEMPHIS INTL   PTCLDY    87  73  62 SW5       30.09S HX  94
NWS MEMPHIS      N/A     86 N/A N/A MISG        N/A
JACKSON        CLEAR     82  77  84 S3        30.10R HX  90
DYERSBURG      CLEAR    N/A N/A N/A MISG        N/A
UNION CITY     CLEAR     81  75  83 S5        30.07R
PARIS          CLEAR     79  73  83 S5        30.10S
LEXINGTON      CLEAR     81  79  94 CALM      30.10S
$$

TNZ008-025-027-028-033-062-065-066-250200-
NORTH MIDDLE TENNESSEE

CITY           SKY/WX    TMP DP  RH WIND       PRES   REMARKS
NASHVILLE      MOCLDY    85  72  65 CALM      30.13R HX  91
CLARKSVILLE    CLEAR     83  74  74 SE3       30.10S
SMYRNA         CLEAR     86  72  62 SW7       30.14R HX  92
COOKEVILLE     CLEAR     77  73  88 CALM      30.16S
CROSSVILLE     CLEAR     76  71  85 CALM      30.23R
$$

TNZ061-075-076-078-094-096-097-250200-
SOUTH MIDDLE TENNESSEE

CITY           SKY/WX    TMP DP  RH WIND       PRES   REMARKS
FAYETTEVILLE   PTCLDY    82  72  69 CALM      30.16R
TULLAHOMA      CLEAR     79  73  83 CALM      30.19R
WINCHESTER     CLEAR     79  73  83 CALM      30.17R
MCMINNVILLE    CLEAR     81  75  83 CALM      30.18R
COLUMBIA       CLEAR     81  81 100 SE3       30.12S HX  91
SHELBYVILLE    CLEAR     81  75  83 E3        30.16R
$$

TNZ017-018-042-046-047-250200-
NORTHEAST TENNESSEE

CITY           SKY/WX    TMP DP  RH WIND       PRES   REMARKS
TRI CITIES     MOCLDY    75  69  81 CALM      30.22S
ELIZABETHTON     N/A     73  68  83 NE7       30.23S
$$

TNZ012-013-036-069-073-074-250200-
CENTRAL EAST TENNESSEE

CITY           SKY/WX    TMP DP  RH WIND       PRES   REMARKS
KNOXVILLE      PTCLDY    84  70  62 CALM      30.17R
GATLINBURG     CLEAR     79  70  73 CALM      30.17R
MORRISTOWN     PTCLDY    81  72  74 CALM      30.19R
$$

TNZ083-085-099-250200-
SOUTHEAST TENNESSEE

CITY           SKY/WX    TMP DP  RH WIND       PRES   REMARKS
CHATTANOOGA    MOCLDY    84  69  60 S8        30.17R
$$

SKY/WX REPORTED AS FAIR MEANS FEW OR NO CLOUDS BELOW
12 THOUSAND FEET.





USA.gov is the U.S. government's official web portal to all federal, state and local government web resources and services.